Regional Weather Roundup
Issued by NWS

Home | Current Version | Previous Version | Text Only | Print | Product List | Glossary Off
Versions: 1 2 3 4 5 6 7 8 9 10 11 12 13 14 15 16 17 18 19 20 21 22 23 24 25 26 27 28 29 30 31 32 33 34 35 36 37 38 39 40 41 42 43 44 45 46 47 48 49 50

000
ASUS43 KLOT 210812
RWRIL

ILLINOIS REGIONAL WEATHER ROUNDUP
NATIONAL WEATHER SERVICE CHICAGO/ROMEOVILLE IL
300 AM CDT TUE APR 21 2015

NOTE: "FAIR" INDICATES FEW OR NO CLOUDS BELOW 12,000 FEET WITH NO
SIGNIFICANT WEATHER AND/OR OBSTRUCTIONS TO VISIBILITY.

* THESE STATIONS ARE NOT UNDER NWS QUALITY CONTROL. THEY ALSO MAY NOT
  REPORT WEATHER SUCH AS PRECIPITATION OR FOG.

ILZ001-002-007-009-015-016-024-210900-
NORTHWEST ILLINOIS

CITY           SKY/WX    TMP DP  RH WIND       PRES   REMARKS
MOLINE         CLEAR     41  30  65 W10       29.67F
STERLING*      CLEAR     39  30  70 W17       29.64S WCI  30
SAVANNA*       CLEAR     41  30  66 W14G21    29.62F
$$

ILZ003-004-008-010-011-017-018-210900-
NORTH CENTRAL ILLINOIS

CITY           SKY/WX    TMP DP  RH WIND       PRES   REMARKS
ROCKFORD       CLEAR     40  29  64 W13G22    29.61S
FREEPORT*      CLEAR     37  29  72 W12       29.61S WCI  30
ROCHELLE*      CLEAR     35  32  88 SW12      29.62S WCI  27
DE KALB*       CLEAR     37  31  78 W15       29.60F WCI  28
PERU*          CLEAR     41  32  70 W13       29.65F
$$

ILZ005-006-012>014-019>023-210900-
NORTHEAST ILLINOIS

CITY           SKY/WX    TMP DP  RH WIND       PRES   REMARKS
CHICAGO-OHARE  CLEAR     40  31  70 W13       29.59F
CHICAGO-MIDWAY PTCLDY    44  32  62 SW15      29.61S
AURORA         CLEAR     40  31  70 SW12      29.61F
LANSING*       CLOUDY    41  32  69 SW12      29.63F
JOLIET*        CLEAR     44  33  64 W9        29.64S
WAUKEGAN       PTCLDY    39  31  72 SW8       29.56S WCI  33
DUPAGE AIRPORT CLEAR     39  32  76 SW10      29.59F WCI  32
KANKAKEE*      CLEAR     36  33  87 SW8       29.68S WCI  30
WHEELING       CLEAR     41  30  65 W12G17    29.59F
MORRIS*        PTCLDY    42  32  67 W12       29.62S
ROMEOVILLE*    CLEAR     41  32  71 W15G21    29.62S
NORTHERLY ISL    N/A     44  32  62 W6          N/A
$$

LMZ740>746-210900-
SOUTHERN LAKE MICHIGAN

STATION/POSITION SKY/WX   TEMP    WIND        PRES    VSBY  WAVE
                          AIR SEA DIR/SP/G                  HT/PER
                          (F)     (DEG/KT/KT) (MB)    (MI)  (FT/S)
HARRISON CRIB              44     240/ 16/ 23   N/A
BURNHAM HARBOR             44     230/  8/ 12   N/A
CALUMET HARBOR             44     230/ 11/ 18   N/A
BURNS HARBOR               45     220/ 13/ 25 1003.7F
MICHIGAN CITY              44     210/ 18/ 23   N/A
MICHIGAN CITY 6N           44 45  240/ 17/ 25   N/A           4/ 4
$$

ILZ025>027-034>036-040-047-049-050-058-095>099-210900-
WEST-CENTRAL ILLINOIS

CITY           SKY/WX    TMP DP  RH WIND       PRES   REMARKS
QUINCY         CLEAR     43  27  53 W9        29.76S
GALESBURG*     CLEAR     35  28  75 W5        29.70R WCI  31
MACOMB*        CLEAR     40  30  69 W12       29.74S
JACKSONVILLE*  CLEAR     44  32  63 SW12      29.76S
PITTSFIELD*    CLEAR     46  30  54 SW13      29.78S
$$

ILZ028>032-037-038-041>044-048-051>054-059>061-210900-
CENTRAL ILLINOIS

CITY           SKY/WX    TMP DP  RH WIND       PRES   REMARKS
PONTIAC        CLEAR     39  34  81 SW9       29.68F WCI  33
BLOOMINGTON    CLEAR     42  32  68 W10       29.72R
DECATUR        CLEAR     44  32  62 SW14G23   29.74S
PEORIA         CLEAR     41  29  62 SW5       29.70F
LACON*         CLEAR     40  30  69 W3        29.68R
LINCOLN*       CLEAR     43  32  64 SW5       29.72F
SPRINGFIELD    CLEAR     43  32  65 W10       29.75S
TAYLORVILLE    CLEAR     45  32  61 SW16      29.76S
$$

ILZ033-039-045-046-055>057-062-063-210900-
EAST-CENTRAL ILLINOIS

CITY           SKY/WX    TMP DP  RH WIND       PRES   REMARKS
CHAMPAIGN      CLEAR     41  34  76 SW16      29.72S
DANVILLE*      CLEAR     44  33  66 W16       29.69R
RANTOUL*       CLEAR     42  35  76 SW12      29.71S
MATTOON        CLEAR     44  33  65 SW10      29.75F
PARIS*         CLEAR     43  36  75 SW14      29.75F
$$

ILZ079-100>102-210900-
SOUTHWEST ILLINOIS

CITY           SKY/WX    TMP DP  RH WIND       PRES   REMARKS
ALTON          CLEAR     44  28  52 SW9       29.81S
BELLEVILLE     CLEAR     42  34  74 SW7       29.82S
CAHOKIA*       CLEAR     47  31  53 SW8       29.83S
SPARTA*        CLEAR     46  32  58 SW8       29.86S
$$

ILZ064>066-069>071-074>076-080>082-084>086-088>090-092>094-210900-
SOUTH-CENTRAL ILLINOIS

CITY           SKY/WX    TMP DP  RH WIND       PRES   REMARKS
CARBONDALE     CLEAR     44  33  65 SW8       29.87S
CAIRO*         CLEAR     50  36  58 SW5       29.91S
EFFINGHAM*     CLEAR     44  32  60 S9        29.80F
MARION         CLEAR     43  36  75 SW5       29.88S
MT. VERNON     CLEAR     43  32  65 SW9       29.84F
CENTRALIA*     CLEAR     44  32  61 SW10      29.82F
SALEM*         CLEAR     47  33  58 SW12      29.82S
METROPOLIS*    CLEAR     48  39  72 SW6       29.90S
$$

ILZ067-068-072-073-078-083-087-091-210900-
SOUTHEAST ILLINOIS

CITY           SKY/WX    TMP DP  RH WIND       PRES   REMARKS
LAWRENCEVILLE  CLEAR     44  36  73 SW9       29.81F
FLORA*         CLEAR     44  34  69 SW8       29.82F
FAIRFIELD*     CLEAR     44  36  71 SW6       29.83S
HARRISBURG*    CLEAR     45  36  71 CALM      29.88S
ROBINSON*      CLEAR     44  36  73 SW10      29.81S
CARMI*         CLEAR     45  33  62 SW9       29.85F
$$

ABBREVIATIONS USED IN REMARKS
   TC - TEMPERATURE IN CELSIUS
  WCI - WIND CHILL INDEX
   HX - HEAT INDEX
  VSB - VISIBILITY
$$



USA.gov is the U.S. government's official web portal to all federal, state and local government web resources and services.